[[{"header":{"parameterUnit":"m.s-1","parameterCategory":1,"la1":30.2991,"la2":30.254,"lo1":-89.0895,"lo2":-89.0444,"dy":0.0017,"dx":0.0017,"nx":28,"ny":28,"refTime":"2024-04-11T21:00:00:Z","depth":0,"parameterNumber":2,"parameterNumberName":"U-component_of_WINDS"},"data":[0,0,0,0,0,0,0,0,0,0,0,0,0,0,0,0,0,0,0,0,0,0,0,0,0,0,0,0,0,0,0,0,0,0,0,0,0,0,0,0,0,0,0,0,0,0,0,0,0,0,0,0,0,0,0,0,0,0,1.7446,1.7447,0,1.7553,1.7554,1.7555,1.7604,1.7604,1.7604,1.7604,1.7715,1.7718,1.7721,0,0,0,0,0,0,0,0,0,0,0,0,0,1.7286,1.7289,1.7446,1.7447,1.7448,1.7553,1.7554,1.7556,1.7604,1.7604,1.7604,1.7604,1.7714,1.7717,1.7721,0,0,0,0,0,0,0,0,0,0,0,0,0,1.7371,1.729,1.7446,1.7485,1.749,1.7552,1.7554,1.7556,1.7604,1.7604,1.7604,1.7604,1.7713,1.7717,1.7722,1.7753,0,0,1.7735,1.7737,0,0,0,0,0,0,0,0,1.7366,1.7376,1.7478,1.7483,1.7488,1.7565,1.7539,1.7622,1.7604,1.7561,1.7604,1.7604,1.7665,1.7674,1.7694,1.7758,1.7763,1.7736,1.7739,1.7741,1.7742,0,0,0,0,0,0,0,1.736,1.7372,1.7488,1.748,1.7486,1.7499,1.751,1.7555,1.7613,1.7565,1.7569,1.7581,1.7668,1.769,1.7697,1.7764,1.7736,1.774,1.7743,1.7744,1.7861,1.7861,0,0,0,0,0,0,1.7347,1.7367,1.7485,1.7491,1.7425,1.7502,1.7515,1.7541,1.7612,1.7623,1.7581,1.7582,1.7682,1.7692,1.7701,1.7743,1.7741,1.7745,1.7747,1.7861,1.7861,1.7861,0,0,0,0,0,0,1.7344,1.7357,1.7481,1.743,1.7447,1.7505,1.7533,1.7543,1.7564,1.7624,1.7635,1.7592,1.7682,1.7695,1.774,1.7748,1.7747,1.7751,1.786,1.7861,1.7861,1.7827,0,0,0,0,0,0,1.7339,1.7356,1.7367,1.743,1.7449,1.7516,1.7533,1.7545,1.7572,1.7575,1.7638,1.7648,1.7683,1.7733,1.7744,1.7754,1.7755,1.786,1.786,1.7861,1.7828,1.7826,1.7825,0,0,0,0,0,1.7333,1.7353,1.7368,1.7382,1.7465,1.7517,1.7528,1.7568,1.7572,1.7585,1.7624,1.7646,1.7745,1.7737,1.775,1.7762,1.7859,1.786,1.7861,1.7828,1.7827,1.7825,0,0,0,0,0,0,1.729,1.7362,1.7379,1.742,1.7462,1.7525,1.7542,1.7564,1.7606,1.7607,1.7655,1.7669,1.771,1.7741,1.773,1.7797,1.7804,1.7808,1.7775,1.7774,1.7773,1.7764,1.7758,0,0,0,0,0,1.7286,1.7321,1.7382,1.7413,1.7433,1.7484,1.7508,1.7535,1.758,1.7598,1.764,1.7684,1.7725,1.7751,1.7792,1.7833,1.7848,1.7847,1.7846,1.7845,1.7847,1.7872,1.7873,1.7864,1.7864,1.7864,0,0,1.7276,1.732,1.734,1.7405,1.7441,1.7477,1.7498,1.7536,1.7563,1.7604,1.7649,1.7682,1.7734,1.7777,1.7798,1.7804,1.7853,1.7846,1.7844,1.7847,1.7873,1.7874,1.7874,1.7865,1.7864,1.7864,0,0,1.7278,1.7315,1.7345,1.738,1.7434,1.7468,1.7475,1.7535,1.7558,1.7604,1.7636,1.767,1.774,1.7776,1.7803,1.782,1.7843,1.7833,1.7826,1.785,1.785,1.7851,1.7858,1.786,1.7835,1.7835,1.7835,0,1.726,1.7315,1.7357,1.7393,1.7422,1.746,1.7492,1.7524,1.7589,1.7608,1.7613,1.7702,1.774,1.7793,1.7797,1.7818,1.7828,1.7826,1.7847,1.7848,1.785,1.7857,1.7859,1.7833,1.7833,1.7834,1.7834,0,1.7291,1.7329,1.7347,1.7408,1.7439,1.7472,1.752,1.7546,1.7571,1.7605,1.7652,1.7699,1.7751,1.7765,1.779,1.7822,1.7824,1.7837,1.7846,1.7848,1.7856,1.7859,1.7831,1.7832,1.7832,1.7832,0,0,1.7268,1.7353,1.7359,1.7388,1.745,1.7481,1.7517,1.7567,1.7589,1.7633,1.7665,1.7724,1.7737,1.7768,1.7797,1.7818,1.783,1.7829,1.7831,1.7828,1.7869,1.7859,1.7861,1.7845,1.7846,1.7846,1.7865,0,1.7279,1.7344,1.7383,1.7433,1.7469,1.7507,1.7539,1.7581,1.7614,1.7651,1.7687,1.7728,1.7742,1.7761,1.7784,1.7823,1.7839,1.7823,1.7876,1.7877,1.7862,1.7865,1.7854,1.787,1.7868,1.7869,1.7869,0,1.73,1.7343,1.7396,1.7456,1.7472,1.75,1.755,1.7584,1.7634,1.7656,1.7692,1.7721,1.7762,1.7767,1.7825,1.7813,1.7837,1.786,1.7862,1.7868,1.7873,1.7872,1.7876,1.7878,1.7874,1.7874,1.7874,0,1.7279,1.735,1.7391,1.7414,1.7485,1.7503,1.7534,1.7583,1.7612,1.7656,1.7675,1.7723,1.775,1.7787,1.783,1.783,1.7883,1.7892,1.7904,1.7903,1.7913,1.7912,1.792,1.7928,1.7928,1.7928,1.7928,0,1.7287,1.7318,1.7382,1.7408,1.7444,1.749,1.7525,1.7559,1.7602,1.7636,1.7672,1.7703,1.7756,1.7794,1.7828,1.7871,1.7882,1.7902,1.7911,1.7899,1.7897,1.7916,1.7916,1.7929,1.7928,1.7928,1.7928,0,1.7269,1.7313,1.7361,1.7424,1.7441,1.7465,1.752,1.7546,1.7581,1.7623,1.7636,1.7691,1.7738,1.7784,1.7846,1.7869,1.7911,1.7923,1.7894,1.7899,1.7908,1.7907,1.793,1.7936,1.7939,1.7939,1.7938,0,1.7271,1.7296,1.7362,1.7387,1.7416,1.7456,1.7485,1.7532,1.7561,1.762,1.764,1.7689,1.773,1.7803,1.7849,1.7898,1.7911,1.7916,1.7918,1.7906,1.7912,1.791,1.7913,1.7914,1.7914,1.7914,1.7913,0,1.7271,1.7292,1.7332,1.7381,1.7414,1.7455,1.7497,1.7515,1.757,1.7601,1.7649,1.7681,1.7746,1.7794,1.7848,1.7881,1.7907,1.7912,1.7918,1.7906,1.7889,1.7899,1.7891,1.7911,1.7912,1.7912,1.7912,1.7912,1.7263,1.7288,1.7338,1.7383,1.7419,1.7458,1.7486,1.7525,1.7566,1.7621,1.7646,1.7695,1.7745,1.7821,1.7853,1.7892,1.7899,1.7906,1.7908,1.7909,1.7907,1.7882,1.7902,1.7902,1.7902,1.7902,1.7903,0,1.7265,1.73,1.734,1.7398,1.7433,1.7454,1.7502,1.753,1.7572,1.7617,1.7657,1.7713,1.7761,1.7811,1.7862,1.7884,1.7897,1.7896,1.7895,1.7902,1.7898,1.7888,1.7884,1.7884,1.7884,1.7884,1.7884,1.7884,1.727,1.7313,1.734,1.7402,1.7437,1.7484,1.751,1.7546,1.7582,1.7642,1.7682,1.7715,1.7762,1.7817,1.7862,1.7876,1.7894,1.7889,1.7906,1.7901,1.7902,1.7903,1.7895,1.7892,1.7892,1.7907,1.7907,1.7907]},{"header":{"parameterUnit":"m.s-1","parameterCategory":1,"la1":30.2991,"la2":30.254,"lo1":-89.0895,"lo2":-89.0444,"dy":0.0017,"dx":0.0017,"nx":28,"ny":28,"refTime":"2024-04-11T21:00:00:Z","depth":0,"parameterNumber":3,"parameterNumberName":"V-component_of_WINDS"},"data":[0,0,0,0,0,0,0,0,0,0,0,0,0,0,0,0,0,0,0,0,0,0,0,0,0,0,0,0,0,0,0,0,0,0,0,0,0,0,0,0,0,0,0,0,0,0,0,0,0,0,0,0,0,0,0,0,0,0,-3.4309,-3.4309,0,-3.4362,-3.4363,-3.4364,-3.4387,-3.4387,-3.4387,-3.4387,-3.4438,-3.4439,-3.4441,0,0,0,0,0,0,0,0,0,0,0,0,0,-3.4226,-3.4227,-3.4309,-3.431,-3.431,-3.4362,-3.4363,-3.4364,-3.4387,-3.4387,-3.4387,-3.4387,-3.4437,-3.4439,-3.4441,0,0,0,0,0,0,0,0,0,0,0,0,0,-3.4269,-3.4228,-3.4309,-3.4328,-3.4331,-3.4362,-3.4363,-3.4364,-3.4387,-3.4387,-3.4387,-3.4387,-3.4437,-3.4439,-3.4441,-3.4456,0,0,-3.4447,-3.4448,0,0,0,0,0,0,0,0,-3.4266,-3.4272,-3.4325,-3.4327,-3.433,-3.4368,-3.4352,-3.4395,-3.4387,-3.4365,-3.4387,-3.4387,-3.4414,-3.4418,-3.4428,-3.4458,-3.4461,-3.4448,-3.4449,-3.445,-3.445,0,0,0,0,0,0,0,-3.4263,-3.427,-3.433,-3.4325,-3.4328,-3.4334,-3.434,-3.4361,-3.439,-3.4367,-3.4369,-3.4375,-3.4416,-3.4426,-3.443,-3.4461,-3.4448,-3.4449,-3.4451,-3.4452,-3.4509,-3.451,0,0,0,0,0,0,-3.4257,-3.4267,-3.4328,-3.4331,-3.4297,-3.4336,-3.4342,-3.4356,-3.439,-3.4395,-3.4375,-3.4376,-3.4423,-3.4427,-3.4432,-3.4454,-3.445,-3.4452,-3.4453,-3.4509,-3.4509,-3.451,0,0,0,0,0,0,-3.4256,-3.4263,-3.4326,-3.43,-3.4308,-3.4337,-3.4352,-3.4357,-3.4368,-3.4396,-3.4401,-3.4381,-3.4423,-3.4429,-3.4451,-3.4456,-3.4453,-3.4455,-3.4509,-3.4509,-3.4509,-3.4496,0,0,0,0,0,0,-3.4253,-3.4262,-3.4268,-3.43,-3.431,-3.4344,-3.4352,-3.4358,-3.4372,-3.4373,-3.4402,-3.4407,-3.4423,-3.4447,-3.4453,-3.4459,-3.4456,-3.4508,-3.4509,-3.4509,-3.4496,-3.4496,-3.4496,0,0,0,0,0,-3.425,-3.426,-3.4268,-3.4275,-3.4318,-3.4345,-3.435,-3.437,-3.4372,-3.4378,-3.4397,-3.4406,-3.4454,-3.445,-3.4456,-3.4462,-3.4508,-3.4509,-3.4509,-3.4496,-3.4496,-3.4496,0,0,0,0,0,0,-3.4226,-3.4265,-3.4274,-3.4295,-3.4317,-3.4349,-3.4357,-3.4368,-3.4389,-3.4389,-3.4411,-3.4418,-3.4438,-3.4452,-3.4446,-3.448,-3.4482,-3.4484,-3.447,-3.447,-3.447,-3.4466,-3.4458,0,0,0,0,0,-3.4224,-3.4243,-3.4275,-3.4291,-3.4302,-3.4328,-3.434,-3.4354,-3.4376,-3.4385,-3.4405,-3.4426,-3.4446,-3.4459,-3.4479,-3.4499,-3.4506,-3.4506,-3.4506,-3.4506,-3.4507,-3.4521,-3.4522,-3.4512,-3.4512,-3.4511,0,0,-3.4218,-3.4242,-3.4252,-3.4287,-3.4305,-3.4325,-3.4335,-3.4354,-3.4369,-3.4387,-3.4411,-3.4426,-3.4451,-3.4473,-3.4483,-3.4485,-3.4512,-3.4506,-3.4506,-3.4508,-3.4522,-3.4523,-3.4524,-3.4512,-3.4512,-3.4512,0,0,-3.4218,-3.4237,-3.4254,-3.4273,-3.4302,-3.432,-3.4324,-3.4355,-3.4367,-3.439,-3.4406,-3.4423,-3.4457,-3.4475,-3.4488,-3.4499,-3.4509,-3.4505,-3.4504,-3.4517,-3.4518,-3.4519,-3.4524,-3.4526,-3.4506,-3.4506,-3.4506,0,-3.4207,-3.4238,-3.426,-3.428,-3.4296,-3.4316,-3.4333,-3.435,-3.4383,-3.4394,-3.4395,-3.4441,-3.4458,-3.4486,-3.4489,-3.4499,-3.4505,-3.4501,-3.4516,-3.4517,-3.4518,-3.4524,-3.4526,-3.4506,-3.4506,-3.4506,-3.4506,0,-3.4224,-3.4245,-3.4255,-3.4289,-3.4306,-3.4324,-3.435,-3.4364,-3.4377,-3.4394,-3.4419,-3.4442,-3.4469,-3.4476,-3.4487,-3.4506,-3.4507,-3.4512,-3.4515,-3.4518,-3.4524,-3.4526,-3.4505,-3.4505,-3.4505,-3.4505,0,0,-3.4208,-3.4258,-3.4261,-3.4278,-3.4313,-3.4329,-3.4349,-3.4377,-3.4389,-3.4412,-3.443,-3.4459,-3.4466,-3.4481,-3.4495,-3.4507,-3.4517,-3.4512,-3.4513,-3.4513,-3.4541,-3.4537,-3.4539,-3.4524,-3.4524,-3.4525,-3.4539,0,-3.4214,-3.4252,-3.4274,-3.4303,-3.4324,-3.4345,-3.4363,-3.4386,-3.4404,-3.4424,-3.4443,-3.4464,-3.447,-3.448,-3.4493,-3.4513,-3.4523,-3.4512,-3.4541,-3.4542,-3.4535,-3.4542,-3.4537,-3.455,-3.4541,-3.4542,-3.4542,0,-3.4225,-3.425,-3.4282,-3.4317,-3.4327,-3.4342,-3.4371,-3.439,-3.4417,-3.443,-3.4449,-3.4464,-3.4486,-3.4487,-3.4519,-3.4512,-3.4525,-3.4537,-3.4538,-3.4541,-3.4542,-3.4547,-3.4554,-3.4556,-3.4545,-3.4545,-3.4545,0,-3.4212,-3.4254,-3.4279,-3.4293,-3.4334,-3.4345,-3.4363,-3.439,-3.4406,-3.4431,-3.4442,-3.4469,-3.4483,-3.4503,-3.4525,-3.4524,-3.4556,-3.4558,-3.4567,-3.4566,-3.4572,-3.4572,-3.4583,-3.4579,-3.4579,-3.4579,-3.4579,0,-3.4216,-3.4235,-3.4275,-3.429,-3.4312,-3.4338,-3.4359,-3.4378,-3.4404,-3.4423,-3.4442,-3.446,-3.4488,-3.4509,-3.4526,-3.4551,-3.4557,-3.4568,-3.4572,-3.4567,-3.4566,-3.4576,-3.4576,-3.458,-3.458,-3.458,-3.458,0,-3.4206,-3.4233,-3.4262,-3.43,-3.431,-3.4325,-3.4358,-3.4374,-3.4394,-3.4419,-3.4426,-3.4457,-3.4483,-3.4508,-3.4542,-3.4554,-3.4579,-3.4584,-3.4571,-3.4573,-3.4581,-3.4581,-3.46,-3.4605,-3.4597,-3.4597,-3.4597,0,-3.4207,-3.4222,-3.4263,-3.4279,-3.4297,-3.4321,-3.4339,-3.4366,-3.4384,-3.4418,-3.443,-3.4459,-3.4483,-3.4525,-3.455,-3.4577,-3.4584,-3.4589,-3.4587,-3.4582,-3.4585,-3.4585,-3.4587,-3.4588,-3.4588,-3.4588,-3.4588,0,-3.4206,-3.422,-3.4246,-3.4277,-3.4298,-3.4323,-3.4349,-3.436,-3.4392,-3.4411,-3.444,-3.4459,-3.4496,-3.4525,-3.4556,-3.4573,-3.4586,-3.4589,-3.4592,-3.4587,-3.4579,-3.4585,-3.4571,-3.4588,-3.4588,-3.4588,-3.4588,-3.4588,-3.4203,-3.4219,-3.4251,-3.428,-3.4303,-3.4327,-3.4345,-3.4369,-3.4394,-3.4428,-3.4442,-3.4472,-3.4501,-3.4544,-3.4562,-3.4586,-3.4588,-3.4593,-3.4594,-3.4595,-3.4595,-3.4575,-3.4591,-3.4591,-3.4591,-3.4591,-3.4591,0,-3.4204,-3.4228,-3.4254,-3.4291,-3.4314,-3.4326,-3.4356,-3.4374,-3.4401,-3.4428,-3.4453,-3.4487,-3.4516,-3.4545,-3.4575,-3.4588,-3.4595,-3.4595,-3.4595,-3.4599,-3.459,-3.4585,-3.459,-3.459,-3.459,-3.459,-3.459,-3.459,-3.4208,-3.4237,-3.4255,-3.4296,-3.4318,-3.4349,-3.4365,-3.4388,-3.4411,-3.4449,-3.4474,-3.4493,-3.4522,-3.4555,-3.4582,-3.459,-3.46,-3.4599,-3.4608,-3.46,-3.46,-3.4599,-3.4594,-3.4601,-3.4601,-3.4616,-3.4616,-3.4616]}]]